English version Home page |
Updated on October 14, 2011 |
|
軌道要素The following orbital elements are taken from MPC 62583: Epoch 2008 Oct. 21.0 TT = JDT 2454760.5 T 2008 Oct. 6.5665 TT MPC q 3.693134 (2000.0) P Q n 0.1048993 Peri. 131.9916 -0.4187818 +0.8810092 a 4.452676 Node 112.0014 -0.8874589 -0.3456969 e 0.170581 Incl. 13.7325 -0.1924540 -0.3229806 P 9.40 From 87 observations 1999-2008, mean residual 0".7.
|
星図
|
光度変化m1 = -13.0 + 5 logΔ + 50.0 log r
|
軌道要素はMPCのEphemerides and Orbital Elementsに掲載されたものです。
|